"Pseudo-MPEC" for 6EB3121

Created 2026 May 13 21:35:04 UT using Find_Orb

Click here for an explanation of pseudo-MPECs

 
 Astrometry: 
     6EB3121 0C2026 04 29.33749109 52 01.671+30 35 38.29   ~5DKo 22.44GVNEOCPF52
     6EB3121 0C2026 04 29.34863309 52 01.965+30 34 33.38   ~5DKo 21.21GVNEOCPF52
     6EB3121 0C2026 04 29.35972809 52 02.349+30 33 28.55   ~5DKo 22.50GVNEOCPF52
     6EB3121 0C2026 04 29.37076809 52 02.683+30 32 23.88   ~5DKo 21.04GVNEOCPF52
     6EB3121*KC2026 05 11.97581 10 15 59.63 -06 18 13.0    ~5C2o       VNEOCPW94
     6EB3121 KC2026 05 11.98205 10 16 00.36 -06 19 59.0    ~5C2o 20.1 GVNEOCPW94
     6EB3121 KC2026 05 11.98823 10 16 01.07 -06 21 43.1    ~5C2o 20.1 GVNEOCPW94
     6EB3121 4C2026 05 12.10406 10 16 16.62 -06 54 32.0    ~5C3o 19.4 VqNEOCPW97
     6EB3121 4C2026 05 12.10990 10 16 17.50 -06 56 10.6    ~5C3o 20.2 VqNEOCPW97
     6EB3121 4C2026 05 12.11575 10 16 18.35 -06 57 49.7    ~5C3o 20.0 VqNEOCPW97
     6EB3121 4C2026 05 12.14959 10 16 23.66 -07 07 26.1    ~5C4K 19.7 VqNEOCPW97
     6EB3121 4C2026 05 12.15544 10 16 24.47 -07 09 05.2    ~5C4K       qNEOCPW97
     6EB3121 4C2026 05 12.16128 10 16 25.52 -07 10 43.9    ~5C4K       qNEOCPW97
     6EB3121 0B2026 05 12.79408410 18 36.266-10 14 48.72   ~5D6o 19.9 GWNEOCPM21
     6EB3121 0B2026 05 12.80765410 18 38.218-10 18 48.50   ~5D6o       WNEOCPM21
     6EB3121 0B2026 05 12.82104610 18 40.162-10 22 45.24   ~5D6o       WNEOCPM21
     6EB3121 |C2026 05 12.95624010 19 14.460-11 02 36.80   ~5D0Z 19.5 GVNEOCP807
     6EB3121 |C2026 05 12.95944010 19 14.940-11 03 34.40   ~5D0Z 20.2 GVNEOCP807
     6EB3121 |C2026 05 12.96264010 19 15.400-11 04 31.20   ~5D0Z 19.4 GVNEOCP807
     6EB3121 |C2026 05 12.96583010 19 15.870-11 05 28.60   ~5D0Z 19.7 GVNEOCP807
     6EB3121 KB2026 05 13.12689810 19 43.174-11 56 21.62   ~5D3o 20.0 VZNEOCPW05
     6EB3121 KB2026 05 13.13298610 19 44.160-11 58 10.34   ~5D3o 19.9 VZNEOCPW05
     6EB3121 KB2026 05 13.13893510 19 45.154-11 59 56.90   ~5D3o 21.2 VZNEOCPW05
     6EB3121 KB2026 05 13.81959710 22 15.821-15 27 37.44   ~5DKo 19.7 GXNEOCP595
     6EB3121 KB2026 05 13.83099010 22 17.758-15 31 08.08   ~5DKo 19.3 GXNEOCP595
     6EB3121 KB2026 05 13.84237810 22 19.908-15 34 37.02   ~5DKo 19.7 GXNEOCP595

Station data:
(595) Farra d'Isonzo  (N45.915731 E13.525780)  Italy.  Observers S. Aschi, E.
   Pettarin, G. Panterotto. Measurers S. Aschi, E. Pettarin. 0.40-m f/5.15
   reflector + CCD.
(807) Cerro Tololo Observatory, La Serena  (S30.169133 W70.805900)  Chile.
   Observer R. Holmes. 0.61-m f/6.5 astrograph + CCD.
(F52) Pan-STARRS 2, Haleakala  (N20.707382 W156.255910)  US/Hawaii.
   Observers J. Herman, T. Lowe, P. Minguez, A. Schultz, I. Smith. Measurers
   K. Chambers, T. de Boer, J. Fairlamb, H. Gao, M. Huber, C.-C. Lin, E.
   Magnier, Y. Ramanjooloo, R. Wainscoat, R. Weryk. 1.8-m Ritchey-Chrétien +
   CCD.
(M21) Schiaparelli Southern Observatory, Hakos  (S23.236549 E16.361440)
   Namibia.  Observers A. Aletti, F. Bellini, L. Buzzi, G. Galli. Measurer L.
   Buzzi. 0.36-m f/8.4 reflector + CCD.
(W05) Tree Gate Farm Observatory, Starkville  (N33.347635 W88.732810).
   Observer J.-F. Gout. 0.5-m f/1.5 reflector + CMOS.
(W94) AMACS1, San Pedro de Atacama  (S22.953074 W68.179810)  Chile.  Observers
   A. Maury, G. Attard. Measurers A. Maury, G. Attard, D. Parrott. 0.28-m
   f/2.2 Schmidt + CCD.
(W97) Atacama Desert Observatory, San Pedro de Atacama  (S22.953413
   W68.179760)  Chile.

Orbital elements:  6EB3121
   Perihelion 2026 May 6.318250 +/- 0.0066 TT =  7:38:16.8 (JD 2461166.818250)
Epoch 2026 May 13.0 TT = JDT 2461173.5   Earth MOID: 0.0171      AutoNEOCP
M   2.389698162 +/- 0.010           (J2000 ecliptic)
n   0.357645560 +/- 0.00118         Peri.  178.691972 +/- 0.007
a   1.965625707 +/- 0.00431         Node    42.927755 +/- 0.006
e   0.47845331 +/- 0.00113          Incl.    9.318932 +/- 0.014
P   2.75582                H 24.01  G  0.15   U  8.2
q 1.025165563 +/- 3.6e-5    Q 2.906085851 +/- 0.00859
From 26 observations 2026 Apr. 29-May 13; mean residual 0".49
Residuals in arcseconds: 
260429 F52  .10+  .32-    260512 W97  .08+  .16-    260512 807  .03-  .23+    
260429 F52  .27-  .13-    260512 W97  1.1+  .97-    260512 807  .03-  .07-    
260429 F52  .27+  .09+    260512 W97  .98-  .51-    260513 W05  .42-  .40-    
260429 F52  .11-  .36+    260512 W97  .39+  .19+    260513 W05  .36-  .08-    
260511 W94  .94+  .66+    260512 M21  .11-  .01-    260513 W05  .03+  .10-    
260511 W94  .08+  .46+    260512 M21  .08-  .09+    260513 595  .91+  .41+    
260511 W94  .97-  1.2+    260512 M21  .25-  .04+    260513 595  .78-  .37-    
260512 W97  .02+  1.2-    260512 807  .02+  .06+    260513 595  .31+  .39+    
260512 W97  .36+  .52-    260512 807  .14+  .25-    

Ephemerides (geocentric):
Date (UTC) HH   RA             Dec           delta  r     elong  mag " sig PA
---- --------  ------------   ------------  ------ ------ -----  --- --------
2026 05 13 22  10 22 41.024   -15 55 13.25  .05287 1.0290 109.1 20.1 .244 176
2026 05 13 23  10 22 50.529   -16 08 06.85  .05283 1.0291 109.2 20.1 .254 175
2026 05 14 00  10 23 00.074   -16 21 01.47  .05280 1.0291 109.2 20.1 .263 174
2026 05 14 01  10 23 09.659   -16 33 57.10  .05276 1.0292 109.3 20.1 .273 173
2026 05 14 02  10 23 19.286   -16 46 53.70  .05273 1.0292 109.3 20.1 .283 173
2026 05 14 03  10 23 28.954   -16 59 51.27  .05270 1.0293 109.4 20.1 .293 172
2026 05 14 04  10 23 38.663   -17 12 49.78  .05267 1.0293 109.4 20.1 .304 172
2026 05 14 05  10 23 48.413   -17 25 49.20  .05264 1.0293 109.5 20.1 .314 171
2026 05 14 06  10 23 58.206   -17 38 49.52  .05261 1.0294 109.5 20.1 .324 170
2026 05 14 07  10 24 08.040   -17 51 50.71  .05258 1.0294 109.6 20.1 .335 170
2026 05 14 08  10 24 17.917   -18 04 52.75  .05255 1.0295 109.7 20.1 .345 169
2026 05 14 09  10 24 27.836   -18 17 55.63  .05252 1.0295 109.7 20.1 .355 169
2026 05 14 10  10 24 37.797   -18 30 59.31  .05249 1.0296 109.8 20.0 .366 169
2026 05 14 11  10 24 47.802   -18 44 03.78  .05247 1.0296 109.8 20.0 .377 168
2026 05 14 12  10 24 57.850   -18 57 09.01  .05244 1.0297 109.9 20.0 .387 168
2026 05 14 13  10 25 07.942   -19 10 14.98  .05242 1.0297 109.9 20.0 .398 168
2026 05 14 14  10 25 18.077   -19 23 21.67  .05239 1.0297 110.0 20.0 .409 167
2026 05 14 15  10 25 28.256   -19 36 29.06  .05237 1.0298 110.0 20.0 .419 167
2026 05 14 16  10 25 38.480   -19 49 37.11  .05235 1.0298 110.1 20.0 .430 167
2026 05 14 17  10 25 48.748   -20 02 45.82  .05233 1.0299 110.1 20.0 .441 166
2026 05 14 18  10 25 59.060   -20 15 55.15  .05231 1.0299 110.2 20.0 .452 166
2026 05 14 19  10 26 09.418   -20 29 05.08  .05229 1.0300 110.3 20.0 .463 166
2026 05 14 20  10 26 19.820   -20 42 15.59  .05227 1.0300 110.3 20.0 .474 166
2026 05 14 21  10 26 30.269   -20 55 26.65  .05225 1.0301 110.4 20.0 .485 165
2026 05 14 22  10 26 40.763   -21 08 38.25  .05223 1.0301 110.4 20.0 .496 165
2026 05 14 23  10 26 51.303   -21 21 50.35  .05221 1.0302 110.5 20.0 .507 165
2026 05 15 00  10 27 01.889   -21 35 02.93  .05220 1.0302 110.5 20.0 .518 165
2026 05 15 01  10 27 12.522   -21 48 15.97  .05218 1.0303 110.6 20.0 .529 165
2026 05 15 02  10 27 23.202   -22 01 29.45  .05217 1.0303 110.6 20.0 .540 164
2026 05 15 03  10 27 33.929   -22 14 43.33  .05215 1.0304 110.7 20.0 .551 164
2026 05 15 04  10 27 44.703   -22 27 57.61  .05214 1.0304 110.7 20.0 .563 164
2026 05 15 05  10 27 55.524   -22 41 12.24  .05213 1.0305 110.8 20.0 .574 164
2026 05 15 06  10 28 06.394   -22 54 27.21  .05212 1.0305 110.8 20.0 .585 164
2026 05 15 07  10 28 17.312   -23 07 42.49  .05211 1.0306 110.9 20.0 .596 164
2026 05 15 08  10 28 28.278   -23 20 58.06  .05210 1.0306 111.0 20.0 .607 163
2026 05 15 09  10 28 39.293   -23 34 13.89  .05209 1.0307 111.0 20.0 .619 163
2026 05 15 10  10 28 50.357   -23 47 29.96  .05208 1.0307 111.1 20.0 .630 163
2026 05 15 11  10 29 01.471   -24 00 46.24  .05207 1.0308 111.1 20.0 .641 163
2026 05 15 12  10 29 12.634   -24 14 02.71  .05206 1.0308 111.2 20.0 .652 163
2026 05 15 13  10 29 23.846   -24 27 19.34  .05206 1.0309 111.2 20.0 .664 163
2026 05 15 14  10 29 35.109   -24 40 36.11  .05205 1.0309 111.3 20.0 .675 163
2026 05 15 15  10 29 46.423   -24 53 52.99  .05205 1.0310 111.3 20.0 .686 163
2026 05 15 16  10 29 57.787   -25 07 09.95  .05205 1.0310 111.4 20.0 .697 162
2026 05 15 17  10 30 09.202   -25 20 26.99  .05204 1.0311 111.4 20.0 .709 162
2026 05 15 18  10 30 20.669   -25 33 44.05  .05204 1.0311 111.5 20.0 .720 162
2026 05 15 19  10 30 32.187   -25 47 01.13  .05204 1.0312 111.5 20.0 .731 162
2026 05 15 20  10 30 43.757   -26 00 18.20  .05204 1.0312 111.6 20.0 .742 162
2026 05 15 21  10 30 55.380   -26 13 35.23  .05204 1.0313 111.7 20.0 .754 162